Location: Torch Lake Township
(45.0753°N, 85.3586°W)
Time: 18:16:26
(UTC-05:00)

Amateur Radio Satellites - All Passes

Search period start: 21 December 2014 17:46
Search period end: 22 December 2014 17:46
Location: Torch Lake Township, 45.0753°N, 85.3586°W

Satellite Date Start Highest point End Downlink Frequencies (MHz)
Time Altitude Azimuth
ISS 21 Dec 17:52:52 17:55:45 27° 9° (N) 17:58:37 145.825
GONETS M04 21 Dec 17:54:20 18:02:56 62° 268° (W) 18:11:26
Cubesat XI-IV 21 Dec 17:59:46 18:05:05 80° 74° (ENE) 18:10:26 437.490
MOZHAYETS 4 21 Dec 18:10:29 18:15:03 58° 287° (WNW) 18:19:33
JAS-2 21 Dec 18:13:49 18:20:08 29° 267° (W) 18:26:02 435.910
MaSat-1 21 Dec 18:20:26 18:22:48 81° 62° (ENE) 18:25:18 437.345
AIST 1 21 Dec 18:23:21 18:26:01 16° 292° (WNW) 18:28:42
CUSAT 1 21 Dec 18:28:40 18:30:59 11° 53° (NE) 18:33:23 437.405
PRISM 21 Dec 18:31:44 18:35:34 35° 98° (E) 18:39:21 437.425
CUTE-I 21 Dec 18:32:56 18:38:08 55° 259° (W) 18:43:22 437.470
STRAND 1 21 Dec 18:35:30 18:39:05 19° 91° (E) 18:42:40 437.568
RS-15 21 Dec 19:01:43 19:11:56 39° 30° (NNE) 19:22:30 29.354- 29.394
HO-68 21 Dec 19:07:01 19:12:38 26° 55° (NE) 19:18:14 435.675
CUTE 1.7 + AOD 2 21 Dec 19:16:30 19:17:27 11° 59° (ENE) 19:18:24 437.475
DANDE 21 Dec 19:23:14 19:29:07 24° 64° (ENE) 19:35:36 436.750
ISS 21 Dec 19:29:24 19:32:41 76° 27° (NNE) 19:35:58 145.825
CUBESAT XI-V 21 Dec 19:36:29 19:41:07 86° 103° (ESE) 19:45:43 437.345
Cubesat XI-IV 21 Dec 19:42:59 19:45:48 14° 271° (W) 19:48:38 437.490
BRITE-PL 21 Dec 19:49:15 19:52:33 23° 66° (ENE) 19:55:52 437.365/2234.400
GONETS M04 21 Dec 19:55:06 19:57:47 12° 290° (WNW) 20:00:27
AAUSAT CUBESAT 2 21 Dec 20:01:25 20:04:28 20° 64° (ENE) 20:07:32 437.432
PRISM 21 Dec 20:07:40 20:10:55 22° 295° (WNW) 20:14:08 437.425
CUSAT 1 21 Dec 20:08:22 20:15:46 49° 73° (ENE) 20:23:56 437.405
GOMX 1 21 Dec 20:09:45 20:13:15 27° 67° (ENE) 20:16:49 467.674
STRAND 1 21 Dec 20:13:39 20:18:39 57° 289° (WNW) 20:23:38 437.568
CANX-2 21 Dec 20:17:56 20:22:02 47° 72° (ENE) 20:26:11 2200.000
CUBEBUG 2 21 Dec 20:24:02 20:25:35 12° 59° (ENE) 20:27:09 437.445
DOVE 4 21 Dec 20:29:28 20:33:09 32° 68° (ENE) 20:36:56 437.250
COMPASS 1 21 Dec 20:36:22 20:40:27 49° 72° (ENE) 20:44:35 437.405
BEESAT 3 21 Dec 20:39:20 20:42:03 17° 36° (NE) 20:44:44 437.485
SEEDS 21 Dec 20:43:24 20:47:38 70° 75° (ENE) 20:51:55 437.485
CINEMA 3 21 Dec 20:46:09 20:49:47 29° 67° (ENE) 20:53:31 145.822/145.860
DELFI C3 21 Dec 20:46:31 20:49:51 24° 67° (ENE) 20:53:13 145.870
CUTE 1.7 + AOD 2 21 Dec 20:48:24 20:52:40 89° 263° (W) 20:57:00 437.475
HO-68 21 Dec 20:52:30 20:59:40 75° 255° (WSW) 21:06:53 435.675
AIST 2 21 Dec 20:53:22 20:55:18 13° 31° (NNE) 20:57:14 435.215
FUNcube-1 21 Dec 20:54:27 20:57:14 17° 63° (ENE) 21:00:04 145.935
UWE-3 21 Dec 20:57:43 21:00:58 22° 65° (ENE) 21:04:16 435.000/436.395/437.385
DANDE 21 Dec 21:05:39 21:13:21 89° 260° (W) 21:22:04 436.750
ISS 21 Dec 21:06:44 21:08:55 17° 225° (SW) 21:11:06 145.825
DX 1 21 Dec 21:08:45 21:12:49 41° 70° (ENE) 21:16:55 434.975-435.025
RS-15 21 Dec 21:14:25 21:25:43 86° 237° (WSW) 21:37:30 29.354- 29.394
CUBESAT XI-V 21 Dec 21:16:02 21:17:52 12° 301° (WNW) 21:19:43 437.345
AISAT 21 Dec 21:17:30 21:20:38 19° 63° (ENE) 21:23:47 437.250
HUMSAT D 21 Dec 21:19:24 21:22:18 19° 64° (ENE) 21:25:15 437.325/437.525
BEESAT 2 21 Dec 21:19:47 21:23:28 28° 44° (NE) 21:27:07 435.950
SO-50 21 Dec 21:20:05 21:24:30 55° 120° (ESE) 21:29:06 436.795
BRITE-PL 21 Dec 21:27:16 21:30:59 31° 264° (W) 21:34:43 437.365/2234.400
Oscar 11 21 Dec 21:28:50 21:33:10 83° 75° (ENE) 21:37:33 145.826/435.025
AAUSAT CUBESAT 2 21 Dec 21:35:51 21:39:51 42° 262° (W) 21:43:54 437.432
UKube-1 21 Dec 21:38:10 21:42:30 82° 75° (ENE) 21:46:52 .
PCSat 21 Dec 21:46:16 21:50:47 26° 43° (NE) 21:55:17 145.827
GOMX 1 21 Dec 21:47:51 21:51:23 27° 265° (W) 21:54:58 467.674
CUSAT 1 21 Dec 21:51:36 21:58:50 44° 269° (W) 22:06:42 437.405
CANX-2 21 Dec 21:55:23 21:58:14 17° 269° (W) 22:01:07 2200.000
CUBEBUG 2 21 Dec 21:57:26 22:01:38 78° 258° (WSW) 22:05:58 437.445
ZACube-1 21 Dec 22:02:34 22:06:46 87° 76° (ENE) 22:11:06 437.345
TIGRISAT 21 Dec 22:04:31 22:06:06 12° 88° (E) 22:07:41 435.000
DOVE 4 21 Dec 22:07:43 22:11:02 23° 267° (W) 22:14:24 437.250
VELOX 1 21 Dec 22:08:35 22:12:55 59° 72° (ENE) 22:17:16 145.980
COMPASS 1 21 Dec 22:13:49 22:16:28 16° 269° (W) 22:19:08 437.405
ESTCUBE 1 21 Dec 22:16:07 22:20:04 30° 67° (ENE) 22:24:02 437.505/2401.250
BEESAT 3 21 Dec 22:16:36 22:20:48 84° 236° (SW) 22:24:56 437.485
DELFI C3 21 Dec 22:21:19 22:25:00 31° 264° (W) 22:28:43 145.870
50 SAT 21 Dec 22:21:35 22:25:33 67° 74° (ENE) 22:29:36 437.505
SEEDS 21 Dec 22:22:28 22:23:57 12° 272° (W) 22:25:26 437.485
CINEMA 3 21 Dec 22:23:30 22:27:01 26° 266° (W) 22:30:37 145.822/145.860
FUNcube-1 21 Dec 22:29:09 22:33:12 49° 261° (W) 22:37:23 145.935
AIST 2 21 Dec 22:30:33 22:34:50 60° 52° (NE) 22:39:02 435.215
UNISAT 6 21 Dec 22:32:36 22:36:20 23° 93° (E) 22:40:04 437.425
QB50P2 21 Dec 22:32:43 22:34:51 13° 90° (E) 22:36:58 145.880/145.840
UWE-3 21 Dec 22:33:24 22:37:17 37° 263° (W) 22:41:18 435.000/436.395/437.385
POLYITAN 1 21 Dec 22:41:28 22:44:16 17° 92° (E) 22:47:04 437.675
NANOSAT C BR1 21 Dec 22:42:33 22:45:20 17° 92° (E) 22:48:07 145.865
HO-68 21 Dec 22:45:12 22:48:33 14° 274° (W) 22:51:55 435.675
DX 1 21 Dec 22:46:01 22:49:14 20° 267° (W) 22:52:28 434.975-435.025
DANDE 21 Dec 22:50:33 22:56:07 22° 277° (W) 23:02:07 436.750
AISAT 21 Dec 22:52:41 22:56:56 47° 260° (W) 23:01:13 437.250
CUBEBUG 1 21 Dec 22:53:46 22:58:06 67° 74° (ENE) 23:02:26 437.445
HUMSAT D 21 Dec 22:53:51 22:57:48 43° 262° (W) 23:01:50 437.325/437.525
QB50P1 21 Dec 22:56:40 23:00:08 24° 94° (E) 23:03:35 145.935-145.965
BEESAT 2 21 Dec 22:57:55 23:01:48 37° 243° (WSW) 23:05:37 435.950
SO-50 21 Dec 23:01:32 23:05:22 25° 321° (NW) 23:09:19 436.795
ANTELSAT 21 Dec 23:04:06 23:08:39 46° 99° (E) 23:13:12 437.575/2403.000
YUBILEINY 21 Dec 23:07:33 23:14:33 28° 81° (E) 23:21:33 435.215
UKube-1 21 Dec 23:18:58 23:19:14 10° 272° (W) 23:19:30 .
POPSAT HIP 1 21 Dec 23:25:04 23:29:12 47° 99° (E) 23:33:19 437.405
RS-15 21 Dec 23:28:19 23:36:32 24° 259° (W) 23:45:03 29.354- 29.394
PCSat 21 Dec 23:29:16 23:34:38 63° 243° (WSW) 23:39:58 145.827
SWISSCUBE 21 Dec 23:38:02 23:39:42 12° 57° (ENE) 23:41:22 437.505
TIGRISAT 21 Dec 23:38:42 23:43:26 83° 284° (WNW) 23:48:09 435.000
ITUPSAT 1 21 Dec 23:39:29 23:40:46 11° 56° (NE) 23:42:03 437.325
BUGSAT 1 21 Dec 23:45:01 23:49:03 61° 101° (ESE) 23:53:05 437.445
VELOX 1 21 Dec 23:47:25 23:49:53 15° 269° (W) 23:52:22 145.980
TISAT 1 21 Dec 23:48:56 23:53:06 67° 74° (ENE) 23:57:17 437.305
DUCHIFAT 1 21 Dec 23:52:19 23:56:35 89° 284° (WNW) 00:00:52 145.980
ESTCUBE 1 21 Dec 23:52:55 23:56:54 30° 264° (W) 00:00:54 437.505/2401.250
SPROUT 21 Dec 23:56:31 00:00:47 74° 75° (ENE) 00:05:04 437.525
50 SAT 22 Dec 00:00:08 00:01:15 11° 271° (W) 00:02:22 437.505
BEESAT 22 Dec 00:01:01 00:04:10 18° 61° (ENE) 00:07:20 436.000
QB50P2 22 Dec 00:06:56 00:11:10 61° 287° (WNW) 00:15:23 145.880/145.840
UNISAT 6 22 Dec 00:08:50 00:13:17 42° 290° (WNW) 00:17:44 437.425
AUBIESAT-1 22 Dec 00:09:51 00:12:39 16° 54° (NE) 00:15:26 437.475
AIST 2 22 Dec 00:10:18 00:13:00 16° 250° (WSW) 00:15:39 435.215
O/OREOS (USA 219) 22 Dec 00:11:10 00:14:27 20° 102° (ESE) 00:17:44 437.305
POLYITAN 1 22 Dec 00:16:20 00:20:28 48° 288° (WNW) 00:24:37 437.675
NANOSAT C BR1 22 Dec 00:17:22 00:21:28 48° 289° (WNW) 00:25:34 145.865
QB50P1 22 Dec 00:32:14 00:36:05 34° 291° (WNW) 00:39:55 145.935-145.965
CUBEBUG 1 22 Dec 00:33:02 00:34:55 13° 271° (W) 00:36:49 437.445
M-CUBED/EXP-1 PRIME 22 Dec 00:34:57 00:39:00 27° 59° (ENE) 00:43:04 437.505
ANTELSAT 22 Dec 00:41:32 00:45:09 22° 296° (WNW) 00:48:48 437.575/2403.000
POPSAT HIP 1 22 Dec 01:01:49 01:04:46 19° 296° (WNW) 01:07:43 437.405
YUBILEINY 22 Dec 01:01:56 01:10:37 68° 282° (WNW) 01:19:20 435.215
Oscar 19 22 Dec 01:10:36 01:14:11 19° 91° (E) 01:17:45 437.125/150
SWISSCUBE 22 Dec 01:11:59 01:16:47 83° 75° (ENE) 01:21:36 437.505
ITUPSAT 1 22 Dec 01:13:02 01:17:50 78° 74° (ENE) 01:22:39 437.325
TIGRISAT 22 Dec 01:17:52 01:19:25 12° 302° (WNW) 01:20:58 435.000
BUGSAT 1 22 Dec 01:22:04 01:24:05 14° 299° (WNW) 01:26:05 437.445
TISAT 1 22 Dec 01:27:49 01:29:23 12° 271° (W) 01:30:57 437.305
DUCHIFAT 1 22 Dec 01:31:08 01:31:45 10° 302° (WNW) 01:32:23 145.980
SPROUT 22 Dec 01:36:13 01:37:23 11° 272° (W) 01:38:33 437.525
BEESAT 22 Dec 01:36:48 01:41:32 62° 258° (WSW) 01:46:19 436.000
AUBIESAT-1 22 Dec 01:42:03 01:46:55 87° 252° (WSW) 01:51:50 437.475
O/OREOS (USA 219) 22 Dec 01:49:17 01:53:32 43° 300° (WNW) 01:57:50 437.305
M-CUBED/EXP-1 PRIME 22 Dec 02:09:04 02:13:44 45° 256° (WSW) 02:18:28 437.505
STARS 22 Dec 02:11:01 02:15:10 44° 70° (ENE) 02:19:21 437.465
KKS-1 22 Dec 02:17:32 02:21:57 76° 74° (ENE) 02:26:24 437.445
VERMONT LUNAR 22 Dec 02:31:26 02:32:54 12° 151° (SSE) 02:34:21 437.305
Oscar 19 22 Dec 02:48:48 02:53:56 61° 288° (WNW) 02:59:03 437.125/150
AIST 1 22 Dec 02:49:58 02:52:46 17° 68° (ENE) 02:55:32
PHONESAT 2.4 22 Dec 02:52:25 02:53:48 12° 150° (SSE) 02:55:11 2401.200-2431.200
SWISSCUBE 22 Dec 02:53:32 02:55:15 12° 272° (W) 02:56:59 437.505
ITUPSAT 1 22 Dec 02:54:10 02:56:17 13° 271° (W) 02:58:25 437.325
YUBILEINY 22 Dec 03:04:31 03:09:21 16° 306° (NW) 03:14:13 435.215
ITAMSAT 1 22 Dec 03:07:41 03:12:53 78° 104° (ESE) 03:18:03 435.822/435.867
Gurwin Techsat 1B 22 Dec 03:11:19 03:16:33 54° 100° (E) 03:21:44 435.225
AUBIESAT-1 22 Dec 03:20:54 03:22:29 11° 268° (W) 03:24:04 437.475
HORYU 2 22 Dec 03:38:36 03:42:50 38° 98° (E) 03:47:02 437.375
MOZHAYETS 4 22 Dec 03:38:36 03:42:00 21° 63° (ENE) 03:45:25
STARS 22 Dec 03:48:43 03:51:52 19° 267° (W) 03:55:01 437.465
KKS-1 22 Dec 03:57:44 03:59:09 11° 272° (W) 04:00:33 437.445
VERMONT LUNAR 22 Dec 04:07:25 04:10:34 31° 167° (SSE) 04:13:43 437.305
SO-50 22 Dec 04:09:49 04:13:16 19° 34° (NE) 04:16:44 436.795
AIST 1 22 Dec 04:26:37 04:30:43 46° 267° (W) 04:34:47
PHONESAT 2.4 22 Dec 04:28:35 04:31:49 30° 166° (SSE) 04:35:03 2401.200-2431.200
AO-7 22 Dec 04:42:37 04:50:49 54° 102° (ESE) 04:58:56 29.400- 29.500
ITAMSAT 1 22 Dec 04:48:38 04:51:45 16° 302° (WNW) 04:54:51 435.822/435.867
Gurwin Techsat 1B 22 Dec 04:52:03 04:56:09 23° 298° (WNW) 05:00:13 435.225
GONETS M04 22 Dec 05:01:57 05:09:33 34° 83° (E) 05:17:08
CUBESAT XI-V 22 Dec 05:07:20 05:09:38 14° 60° (ENE) 05:11:56 437.345
MOZHAYETS 4 22 Dec 05:14:23 05:18:53 49° 261° (W) 05:23:26
HORYU 2 22 Dec 05:15:40 05:19:19 24° 295° (WNW) 05:22:57 437.375
JAS-2 22 Dec 05:20:49 05:26:04 39° 96° (E) 05:30:57 435.910
PRISM 22 Dec 05:24:22 05:28:14 36° 69° (ENE) 05:32:06 437.425
VERMONT LUNAR 22 Dec 05:45:12 05:48:31 38° 184° (S) 05:51:49 437.305
SO-50 22 Dec 05:49:37 05:54:32 86° 54° (NE) 05:59:27 436.795
STRAND 1 22 Dec 05:53:03 05:57:38 34° 66° (ENE) 06:02:13 437.568
PHONESAT 2.4 22 Dec 06:06:43 06:10:08 39° 183° (S) 06:13:32 2401.200-2431.200
Cubesat XI-IV 22 Dec 06:15:34 06:20:03 27° 94° (E) 06:24:30 437.490
AO-7 22 Dec 06:35:46 06:43:22 40° 302° (WNW) 06:50:56 29.400- 29.500
CUBESAT XI-V 22 Dec 06:41:47 06:46:27 79° 257° (WSW) 06:51:08 437.345
CUTE-I 22 Dec 06:47:54 06:53:05 50° 100° (E) 06:58:15 437.470
GONETS M04 22 Dec 06:57:13 07:05:54 59° 284° (WNW) 07:14:37
PRISM 22 Dec 07:00:32 07:03:51 22° 266° (W) 07:07:10 437.425
JAS-2 22 Dec 07:06:12 07:11:03 30° 297° (WNW) 07:15:34 435.910
VERMONT LUNAR 22 Dec 07:23:37 07:26:22 21° 201° (SSW) 07:29:06 437.305
SO-50 22 Dec 07:31:59 07:34:25 14° 252° (WSW) 07:36:51 436.795
STRAND 1 22 Dec 07:32:15 07:36:49 32° 264° (W) 07:41:23 437.568
PHONESAT 2.4 22 Dec 07:45:27 07:48:22 23° 200° (SSW) 07:51:16 2401.200-2431.200
Cubesat XI-IV 22 Dec 07:55:16 08:00:17 44° 292° (WNW) 08:05:18 437.490
HO-68 22 Dec 08:19:23 08:24:11 19° 89° (E) 08:28:57 435.675
CUTE-I 22 Dec 08:28:37 08:32:51 25° 298° (WNW) 08:37:04 437.470
SEEDS 22 Dec 08:29:05 08:29:53 10° 87° (E) 08:30:41 437.485
AO-7 22 Dec 08:31:52 08:33:51 11° 325° (NW) 08:35:49 29.400- 29.500
CUTE 1.7 + AOD 2 22 Dec 08:33:29 08:35:49 14° 90° (E) 08:38:08 437.475
GONETS M04 22 Dec 09:01:06 09:05:01 13° 309° (NW) 09:08:57
TIGRISAT 22 Dec 09:05:41 09:07:50 14° 59° (ENE) 09:10:00 435.000
MaSat-1 22 Dec 09:12:09 09:14:24 79° 300° (WNW) 09:16:36 437.345
YUBILEINY 22 Dec 09:14:38 09:19:29 16° 54° (NE) 09:24:19 435.215
DUCHIFAT 1 22 Dec 09:15:39 09:16:00 10° 58° (ENE) 09:16:21 145.980
Oscar 11 22 Dec 09:16:03 09:18:11 13° 89° (E) 09:20:18 145.826/435.025
AAUSAT CUBESAT 2 22 Dec 09:17:40 09:21:16 26° 95° (E) 09:24:50 437.432
CUSAT 1 22 Dec 09:23:22 09:26:51 30° 87° (E) 09:31:20 437.405
UKube-1 22 Dec 09:26:17 09:27:50 12° 89° (E) 09:29:23 .
BRITE-PL 22 Dec 09:28:10 09:32:52 62° 101° (E) 09:37:56 437.365/2234.400
QB50P2 22 Dec 09:28:24 09:30:42 15° 61° (ENE) 09:33:01 145.880/145.840
UNISAT 6 22 Dec 09:34:03 09:37:39 25° 65° (ENE) 09:41:20 437.425
CANX-2 22 Dec 09:37:12 09:41:33 73° 102° (ESE) 09:45:51 2200.000
POLYITAN 1 22 Dec 09:37:18 09:40:06 18° 63° (ENE) 09:42:56 437.675
NANOSAT C BR1 22 Dec 09:37:55 09:40:42 18° 63° (ENE) 09:43:31 145.865
GOMX 1 22 Dec 09:45:46 09:50:32 67° 102° (ESE) 09:55:37 467.674
CUBEBUG 2 22 Dec 09:47:11 09:50:41 21° 92° (E) 09:54:12 437.445
ZACube-1 22 Dec 09:50:32 09:53:19 16° 90° (E) 09:56:07 437.345
QB50P1 22 Dec 09:51:57 09:55:20 24° 66° (ENE) 09:58:43 145.935-145.965
COMPASS 1 22 Dec 09:53:53 09:58:10 74° 102° (ESE) 10:02:24 437.405
DELFI C3 22 Dec 09:59:47 10:03:28 31° 96° (E) 10:07:07 145.870
SEEDS 22 Dec 10:01:57 10:06:15 78° 285° (WNW) 10:10:31 437.485
DOVE 4 22 Dec 10:02:51 10:07:39 74° 102° (ESE) 10:12:44 437.250
ANTELSAT 22 Dec 10:05:21 10:09:36 50° 71° (ENE) 10:13:59 437.575/2403.000
HO-68 22 Dec 10:05:33 10:12:45 86° 288° (WNW) 10:19:54 435.675
CUTE 1.7 + AOD 2 22 Dec 10:07:52 10:12:08 58° 287° (WNW) 10:16:21 437.475
CINEMA 3 22 Dec 10:15:00 10:19:44 60° 101° (E) 10:24:36 145.822/145.860
FUNcube-1 22 Dec 10:15:51 10:19:46 28° 95° (E) 10:23:42 145.935
O/OREOS (USA 219) 22 Dec 10:17:43 10:22:11 56° 63° (ENE) 10:26:38 437.305
POPSAT HIP 1 22 Dec 10:20:07 10:24:08 46° 71° (ENE) 10:28:11 437.405
UWE-3 22 Dec 10:21:00 10:25:17 37° 97° (E) 10:29:37 435.000/436.395/437.385
DANDE 22 Dec 10:23:27 10:27:10 78° 282° (WNW) 10:32:18 436.750
DX 1 22 Dec 10:31:05 10:35:24 58° 101° (ESE) 10:39:41 434.975-435.025
HUMSAT D 22 Dec 10:36:36 10:40:17 26° 95° (E) 10:43:57 437.325/437.525
BUGSAT 1 22 Dec 10:37:16 10:41:16 56° 73° (ENE) 10:45:14 437.445
TIGRISAT 22 Dec 10:39:35 10:43:57 74° 257° (WSW) 10:48:28 435.000
AISAT 22 Dec 10:42:03 10:45:52 27° 95° (E) 10:49:40 437.250
CUBEBUG 1 22 Dec 10:43:43 10:44:34 11° 88° (E) 10:45:25 437.445
DUCHIFAT 1 22 Dec 10:46:58 10:51:10 89° 73° (ENE) 10:55:24 145.980
Oscar 11 22 Dec 10:50:26 10:54:47 64° 286° (WNW) 10:59:05 145.826/435.025
AAUSAT CUBESAT 2 22 Dec 10:53:13 10:56:56 30° 292° (WNW) 11:00:37 437.432
UKube-1 22 Dec 11:00:09 11:04:29 72° 286° (WNW) 11:08:48 .
QB50P2 22 Dec 11:01:58 11:06:08 62° 259° (W) 11:10:21 145.880/145.840
CUSAT 1 22 Dec 11:06:28 11:09:59 26° 297° (WNW) 11:14:27 437.405
BRITE-PL 22 Dec 11:07:53 11:11:01 18° 296° (WNW) 11:14:18 437.365/2234.400
YUBILEINY 22 Dec 11:09:32 11:18:13 68° 78° (ENE) 11:26:52 435.215
UNISAT 6 22 Dec 11:10:15 11:14:17 35° 263° (W) 11:18:26 437.425
POLYITAN 1 22 Dec 11:11:37 11:15:42 48° 260° (W) 11:19:48 437.675
NANOSAT C BR1 22 Dec 11:12:10 11:16:14 48° 260° (W) 11:20:20 145.865
CANX-2 22 Dec 11:14:54 11:16:54 13° 300° (WNW) 11:18:54 2200.000
CUBEBUG 2 22 Dec 11:23:07 11:27:35 47° 289° (WNW) 11:32:06 437.445
GOMX 1 22 Dec 11:25:12 11:28:14 17° 297° (WNW) 11:31:23 467.674
ZACube-1 22 Dec 11:25:34 11:30:02 58° 287° (WNW) 11:34:32 437.345
QB50P1 22 Dec 11:27:15 11:31:04 33° 263° (W) 11:34:55 145.935-145.965
COMPASS 1 22 Dec 11:31:28 11:33:18 13° 300° (WNW) 11:35:08 437.405
VELOX 1 22 Dec 11:33:49 11:38:16 89° 284° (WNW) 11:42:42 145.980
50 SAT 22 Dec 11:34:55 11:39:06 89° 103° (ESE) 11:43:16 437.505
DELFI C3 22 Dec 11:35:15 11:38:37 25° 293° (WNW) 11:41:58 145.870
RS-15 22 Dec 11:40:22 11:50:42 51° 113° (ESE) 12:01:04 29.354- 29.394
DOVE 4 22 Dec 11:42:07 11:44:55 16° 298° (WNW) 11:47:49 437.250
ESTCUBE 1 22 Dec 11:43:12 11:47:34 48° 99° (E) 11:51:54 437.505/2401.250
SPROUT 22 Dec 11:43:44 11:45:06 11° 88° (E) 11:46:27 437.525
ANTELSAT 22 Dec 11:43:48 11:46:44 17° 269° (W) 11:49:43 437.575/2403.000
FUNcube-1 22 Dec 11:52:03 11:56:07 33° 292° (WNW) 12:00:12 145.935
CINEMA 3 22 Dec 11:53:18 11:56:31 18° 297° (WNW) 11:59:49 145.822/145.860
HO-68 22 Dec 11:54:39 11:59:30 20° 308° (NW) 12:04:20 435.675
POPSAT HIP 1 22 Dec 11:57:31 12:00:17 17° 268° (W) 12:03:05 437.405
UWE-3 22 Dec 11:57:52 12:01:39 26° 294° (WNW) 12:05:30 435.000/436.395/437.385
O/OREOS (USA 219) 22 Dec 11:58:21 12:01:07 16° 260° (W) 12:03:53 437.305
DX 1 22 Dec 12:08:33 12:11:12 16° 299° (WNW) 12:13:50 434.975-435.025
HUMSAT D 22 Dec 12:12:14 12:16:05 32° 292° (WNW) 12:19:55 437.325/437.525
BUGSAT 1 22 Dec 12:15:09 12:17:07 13° 270° (W) 12:19:04 437.445
BEESAT 3 22 Dec 12:16:03 12:17:13 11° 108° (ESE) 12:18:24 437.485
CUBEBUG 1 22 Dec 12:17:09 12:21:29 78° 285° (WNW) 12:25:49 437.445
AISAT 22 Dec 12:18:33 12:22:29 31° 293° (WNW) 12:26:24 437.250
Oscar 19 22 Dec 12:29:07 12:33:40 33° 66° (ENE) 12:38:16 437.125/150
PCSat 22 Dec 12:33:30 12:35:24 12° 102° (ESE) 12:37:19 145.827
ITAMSAT 1 22 Dec 12:50:06 12:53:55 21° 61° (ENE) 12:57:44 435.822/435.867
BEESAT 2 22 Dec 12:55:09 12:58:34 25° 114° (ESE) 13:02:01 435.950
Gurwin Techsat 1B 22 Dec 12:57:18 13:00:28 16° 58° (ENE) 13:03:38 435.225
YUBILEINY 22 Dec 13:07:19 13:14:16 28° 279° (W) 13:21:14 435.215
TISAT 1 22 Dec 13:07:41 13:11:56 86° 283° (WNW) 13:16:10 437.305
SWISSCUBE 22 Dec 13:11:34 13:14:51 18° 92° (E) 13:18:08 437.505
VELOX 1 22 Dec 13:12:56 13:14:09 11° 302° (WNW) 13:15:22 145.980
ITUPSAT 1 22 Dec 13:12:58 13:16:06 17° 91° (E) 13:19:13 437.325
50 SAT 22 Dec 13:13:05 13:13:38 10° 301° (WNW) 13:14:12 437.505
SPROUT 22 Dec 13:17:23 13:21:41 73° 286° (WNW) 13:25:59 437.525
ESTCUBE 1 22 Dec 13:20:54 13:24:06 20° 297° (WNW) 13:27:18 437.505/2401.250
BEESAT 22 Dec 13:35:32 13:39:41 29° 95° (E) 13:43:47 436.000
ISS 22 Dec 13:47:42 13:50:55 50° 144° (SE) 13:54:08 145.825
BEESAT 3 22 Dec 13:50:38 13:54:44 81° 306° (NW) 13:58:56 437.485
RS-15 22 Dec 13:52:22 14:03:01 55° 317° (NW) 14:13:51 29.354- 29.394
M-CUBED/EXP-1 PRIME 22 Dec 13:52:38 13:54:19 12° 92° (E) 13:55:56 437.505
AO-7 22 Dec 13:54:10 14:00:10 23° 48° (NE) 14:06:10 29.400- 29.500
Oscar 19 22 Dec 14:08:17 14:12:57 35° 264° (W) 14:17:40 437.125/150
KKS-1 22 Dec 14:08:40 14:10:43 13° 89° (E) 14:12:47 437.445
AIST 2 22 Dec 14:08:51 14:13:03 67° 122° (ESE) 14:17:20 435.215
PCSat 22 Dec 14:12:30 14:17:55 81° 120° (ESE) 14:23:22 145.827
ITAMSAT 1 22 Dec 14:27:54 14:33:00 58° 259° (W) 14:38:07 435.822/435.867
BEESAT 2 22 Dec 14:32:47 14:36:39 38° 313° (NW) 14:40:36 435.950
Gurwin Techsat 1B 22 Dec 14:34:27 14:39:46 81° 256° (WSW) 14:45:07 435.225
HORYU 2 22 Dec 14:39:01 14:43:17 45° 70° (ENE) 14:47:35 437.375
SWISSCUBE 22 Dec 14:48:24 14:53:03 53° 289° (WNW) 14:57:39 437.505
ITUPSAT 1 22 Dec 14:49:41 14:54:22 57° 288° (WNW) 14:59:01 437.325
AUBIESAT-1 22 Dec 14:58:23 15:02:39 56° 105° (ESE) 15:06:30 437.475
GONETS M04 22 Dec 15:09:25 15:15:14 19° 57° (ENE) 15:20:59
BEESAT 22 Dec 15:13:15 15:17:33 34° 293° (WNW) 15:21:49 436.000
ISS 22 Dec 15:24:30 15:27:36 36° 343° (NNW) 15:30:41 145.825
M-CUBED/EXP-1 PRIME 22 Dec 15:25:33 15:29:55 67° 292° (WNW) 15:33:52 437.505
BEESAT 3 22 Dec 15:31:14 15:33:36 15° 326° (NW) 15:35:59 437.485
JAS-2 22 Dec 15:34:07 15:40:14 29° 62° (ENE) 15:45:52 435.910
STARS 22 Dec 15:35:10 15:39:37 68° 102° (ESE) 15:44:02 437.465
KKS-1 22 Dec 15:43:22 15:47:50 68° 286° (WNW) 15:52:17 437.445
AO-7 22 Dec 15:43:28 15:51:47 83° 69° (ENE) 16:00:11 29.400- 29.500
AIST 2 22 Dec 15:48:56 15:52:06 20° 322° (NW) 15:55:19 435.215
PCSat 22 Dec 15:57:53 16:01:59 22° 321° (NW) 16:06:07 145.827
RS-15 22 Dec 16:09:26 16:18:31 28° 349° (N) 16:27:48 29.354- 29.394
HORYU 2 22 Dec 16:16:56 16:20:10 20° 268° (W) 16:23:27 437.375
Gurwin Techsat 1B 22 Dec 16:19:21 16:20:33 11° 274° (W) 16:21:46 435.225
AUBIESAT-1 22 Dec 16:34:19 16:37:06 17° 305° (NW) 16:39:44 437.475
CUTE-I 22 Dec 16:34:43 16:37:50 16° 57° (ENE) 16:40:57 437.470
AIST 1 22 Dec 16:57:46 17:02:09 89° 280° (W) 17:06:32
ISS 22 Dec 17:01:57 17:04:46 25° 3° (N) 17:07:34 145.825
GONETS M04 22 Dec 17:04:51 17:13:41 80° 81° (E) 17:22:23
MOZHAYETS 4 22 Dec 17:07:47 17:12:00 34° 96° (E) 17:16:10
MaSat-1 22 Dec 17:08:06 17:08:53 11° 52° (NE) 17:09:41 437.345
STARS 22 Dec 17:13:08 17:15:34 15° 300° (WNW) 17:17:59 437.465
JAS-2 22 Dec 17:17:22 17:24:53 65° 259° (WSW) 17:31:42 435.910
